SCP
2 2 2 2 2 2 3 3 2 2 1 2 2 3 3 2 1 1 1 1 0 0 0 0 0 0 0 0 0 0 0 0 0 0 0 0 0 0
2 2 2 2 2 2 3 3 3 2 1 2 2 2 3 2 2 2 1 1 0 0 0 0 0 0 0 0 0 0 0 0 0 0 0 0 0 0
2 2 2 2 2 3 3 3 3 2 2 1 2 2 2 2 3 3 2 1 1 0 0 0 0 0 0 0 0 0 0 0 0 0 0 0 0 0
2 2 3 3 3 3 3 3 3 3 2 2 2 2 2 3 3 3 2 2 1 1 0 0 0 0 0 0 0 0 0 0 0 0 0 0 0 0
2 2 3 3 3 4 4 4 4 4 3 3 2 2 3 3 3 2 2 2 2 1 1 0 0 0 0 0 0 0 0 0 0 0 0 0 0 0
2 2 3 3 3 3 4 4 4 4 4 4 3 3 3 3 3 3 2 2 2 2 1 1 1 0 0 0 0 0 0 0 0 0 0 0 0 0
3 3 3 2 2 2 3 3 4 4 4 4 4 4 4 4 4 3 3 3 2 2 2 2 2 2 1 1 0 0 0 0 0 0 0 0 0 0
3 3 3 2 2 2 2 2 2 3 3 3 4 4 4 4 4 4 3 3 3 3 3 2 2 2 2 2 1 0 0 0 0 0 0 0 0 0
3 3 3 2 2 2 2 2 2 1 2 2 3 3 3 4 4 4 3 3 3 3 3 2 2 2 2 2 1 0 0 0 0 0 0 0 0 0
2 2 3 3 3 3 3 2 2 2 2 2 2 2 2 3 3 3 3 2 2 3 3 2 2 2 2 2 1 0 0 0 0 0 0 0 0 0
2 2 2 3 2 2 2 2 2 2 2 2 2 2 2 2 2 2 2 2 2 2 3 2 2 2 2 2 1 1 0 0 0 0 0 0 0 0
2 2 2 2 2 1 2 2 2 2 2 2 2 2 2 2 2 2 2 2 2 2 3 3 3 3 2 2 2 2 2 1 1 0 0 0 0 0
2 2 2 2 1 1 1 1 2 2 2 3 3 3 3 3 3 3 3 3 3 3 3 3 3 3 3 2 3 3 4 4 3 2 1 0 0 0
2 2 2 2 1 0 0 1 1 1 2 3 3 3 3 3 3 4 4 5 4 4 4 4 3 3 3 2 3 4 5 5 5 5 4 2 1 1
2 2 2 1 1 0 0 0 1 1 2 3 3 3 2 2 3 3 4 4 4 3 3 3 3 3 3 2 2 3 4 5 6 6 5 4 3 2
2 2 2 1 1 1 1 1 2 2 3 3 3 2 2 2 2 2 2 2 2 2 2 2 3 3 3 2 2 2 2 3 4 5 5 4 4 4
2 2 3 3 3 3 3 3 3 3 3 3 3 2 2 1 1 2 2 2 1 1 1 1 2 3 2 2 1 1 1 2 3 3 3 3 3 3
2 3 4 4 4 4 5 5 5 4 4 3 3 2 1 1 1 1 1 1 1 1 1 1 1 2 1 1 1 1 0 1 1 2 1 1 1 1
2 3 3 4 5 5 6 6 5 5 5 4 3 2 2 1 1 1 1 1 1 1 1 1 1 1 1 0 0 0 0 0 1 1 0 0 0 0
2 3 3 4 5 5 6 6 6 6 5 4 3 3 2 1 1 1 1 1 1 1 1 1 1 0 0 0 0 0 0 0 0 0 0 0 0 0
2 2 3 3 4 4 5 6 6 6 5 4 3 3 3 2 2 1 1 1 1 1 1 1 0 0 0 0 0 0 0 0 0 0 0 0 0 0
2 2 2 2 3 3 4 4 5 5 5 4 3 3 3 3 2 1 1 1 1 1 1 0 0 0 0 0 0 0 0 0 0 0 0 0 0 0
1 1 1 2 3 3 3 3 4 4 4 3 3 3 3 3 2 1 1 1 1 1 0 0 0 0 0 0 0 0 0 0 0 0 0 0 0 0
Wind_Speed
7 8 7 6 6 6 5 5 6 6 6 4 4 4 4 3 3 6 6 8 10 10 10 10 10 10 10 10 10 10 10 10 11 11 11 11 12 12
6 6 7 7 5 6 6 6 6 7 7 5 4 4 2 4 4 5 5 6 9 10 9 9 9 9 9 10 10 10 10 10 10 10 11 11 11 11
7 7 8 8 6 6 6 6 6 7 8 7 5 3 4 6 4 5 6 6 5 10 9 9 9 9 9 9 9 9 9 9 10 10 10 10 10 10
8 8 9 7 7 7 6 7 6 6 7 8 6 5 6 6 6 7 6 5 5 7 9 8 8 8 8 8 8 8 8 8 8 8 9 9 9 10
7 7 8 7 7 6 7 7 6 6 6 7 7 5 5 5 6 7 6 5 6 5 9 9 8 7 7 7 7 7 7 7 7 7 7 7 8 9
6 7 7 7 7 7 6 7 7 7 6 7 7 6 5 5 5 5 5 5 5 5 4 5 7 8 8 8 7 7 7 7 7 7 7 8 8 9
6 6 6 5 5 4 5 5 6 6 6 6 6 6 6 5 5 5 5 5 5 4 4 4 5 5 6 8 8 7 7 7 7 7 8 8 8 8
6 5 5 5 4 4 5 5 6 7 6 6 5 6 6 6 5 5 5 5 4 3 4 4 4 4 4 3 4 6 7 6 6 6 6 7 8 8
4 4 4 3 4 4 4 4 4 5 6 6 6 7 6 6 6 6 5 5 5 3 3 5 3 4 3 2 5 5 5 5 6 6 6 7 7 8
3 3 3 4 4 4 4 3 3 2 3 3 4 5 5 6 6 6 5 4 4 3 3 4 4 4 4 3 6 5 5 6 6 6 6 5 6 7
1 2 3 2 3 3 3 3 2 2 0 1 1 2 3 5 4 3 3 4 4 2 2 4 4 4 5 4 5 7 7 7 6 5 5 5 5 7
1 1 3 3 3 2 2 2 2 2 2 0 0 1 1 1 2 3 4 4 3 2 1 3 4 4 4 3 2 3 4 6 7 7 6 5 4 6
1 2 2 3 3 2 1 2 3 3 2 1 1 0 1 2 2 2 2 3 3 2 2 3 4 4 4 4 4 3 2 2 3 4 5 5 4 4
2 2 3 3 2 1 1 2 3 3 2 1 1 1 2 2 2 2 2 1 2 2 3 4 4 4 5 5 4 2 2 2 3 3 2 2 4 5
3 4 3 2 2 2 1 2 2 1 1 1 1 2 2 2 2 2 1 1 1 1 2 3 4 5 5 5 4 3 3 3 2 3 3 2 2 2
2 3 2 1 2 2 3 2 1 2 2 2 2 2 2 2 2 2 2 2 2 1 2 2 3 5 5 5 4 4 3 3 3 3 4 3 2 2
1 2 2 2 3 3 3 3 3 3 2 2 2 2 2 2 2 2 2 3 3 3 2 2 2 3 3 5 4 4 4 3 3 3 4 4 2 2
2 3 3 3 3 3 3 3 3 4 4 3 3 3 3 3 3 3 3 3 3 3 3 3 3 3 2 1 4 5 4 5 4 3 4 4 3 2
4 4 4 4 4 4 4 4 4 4 4 4 4 3 3 3 3 3 3 3 3 3 3 3 4 4 5 3 2 3 5 5 5 4 4 4 4 3
4 4 4 4 4 4 4 4 4 4 4 4 4 4 4 3 3 3 3 4 4 4 4 4 4 5 5 5 4 3 2 5 5 5 5 4 4 2
5 4 4 4 4 4 4 4 4 4 4 4 4 4 4 3 3 3 3 3 3 4 4 4 5 5 5 4 4 3 3 3 3 4 6 5 5 4
5 5 4 5 4 4 4 4 4 4 4 4 4 4 4 4 3 4 3 3 3 4 4 3 3 4 4 4 4 4 4 3 1 2 2 3 5 6
5 5 5 5 5 4 4 4 5 4 4 4 4 4 4 4 3 3 4 4 3 4 4 4 3 4 4 4 5 4 5 5 4 3 2 1 4 6
Wind_Direction
244 238 247 253 251 256 255 257 267 276 270 243 240 230 229 237 201 233 236 192 205 217 223 226 229 231 229 231 234 237 237 236 236 236 237 239 241 244
250 259 255 257 257 255 256 254 254 264 274 274 256 254 257 251 203 236 241 193 199 208 215 220 225 228 227 228 232 233 234 235 235 235 237 239 242 246
247 247 249 259 261 259 251 250 249 251 261 268 263 259 242 253 245 246 241 237 210 197 206 213 217 222 224 226 227 229 231 234 236 237 237 238 240 244
251 254 255 251 250 260 260 255 254 253 256 267 269 258 245 240 238 246 249 244 242 184 194 207 215 219 221 222 223 225 227 229 231 233 235 238 241 244
253 255 258 258 255 256 258 260 259 255 253 260 263 262 254 245 240 240 244 249 249 202 187 194 202 208 213 215 217 218 220 222 225 228 233 238 242 245
256 258 260 259 257 259 257 258 260 261 257 257 261 257 249 242 242 245 240 228 240 246 230 205 191 197 206 208 208 211 213 216 222 227 233 238 241 245
257 259 262 270 281 276 273 269 268 262 257 254 256 256 252 244 242 244 250 246 233 237 239 231 211 215 205 202 205 210 213 216 221 227 233 238 243 247
261 266 267 260 252 241 257 275 283 272 272 270 266 266 268 263 262 258 256 254 248 224 245 251 246 250 247 228 175 186 203 214 224 231 240 245 249 251
269 271 275 285 279 263 238 233 258 266 268 274 276 278 276 273 270 262 256 259 267 270 262 264 255 255 251 177 154 173 191 210 223 231 238 245 249 252
284 287 283 284 290 294 279 267 273 282 269 257 277 287 293 293 269 265 268 255 249 254 265 270 265 260 261 226 167 180 194 210 224 233 237 243 252 256
306 336 308 297 341 309 266 265 276 282 195 131 313 315 360 357 336 292 268 256 264 256 254 267 275 276 262 240 183 183 192 201 214 224 230 237 255 260
105 54 38 18 21 352 279 275 281 296 308 80 141 295 318 16 10 324 303 286 282 285 337 282 280 286 273 258 246 220 205 198 207 213 213 224 252 270
76 56 46 49 31 1 322 309 302 295 288 286 282 22 35 26 20 5 338 316 310 310 334 292 284 287 279 279 274 269 274 264 233 217 209 210 229 266
63 51 49 65 74 39 360 325 309 290 288 309 347 355 0 8 13 16 20 359 342 329 334 319 294 293 287 283 284 281 284 289 286 294 306 209 218 218
71 59 43 49 94 94 46 321 316 328 332 332 344 0 11 9 359 5 18 343 280 312 351 326 307 300 291 292 296 300 300 302 310 315 310 304 304 280
110 114 131 90 63 45 44 48 32 1 336 343 356 355 355 0 355 348 334 327 316 339 22 347 326 312 303 306 297 299 306 307 316 320 318 305 301 307
68 65 42 45 46 46 44 35 25 21 9 355 348 342 351 0 359 353 336 318 322 333 342 347 338 322 319 312 306 312 314 310 316 328 298 294 307 324
56 64 48 37 30 28 34 35 31 22 10 6 1 359 359 358 359 356 352 347 340 337 338 342 332 318 304 25 2 325 321 325 329 321 303 308 316 344
70 58 46 39 34 29 29 27 23 20 5 10 13 10 5 4 3 3 4 355 349 349 348 344 336 326 311 317 18 353 329 327 323 322 321 318 316 329
55 55 49 43 38 31 29 26 22 21 20 19 19 13 11 11 11 6 9 4 349 347 348 354 359 349 332 326 322 328 346 332 332 328 326 321 318 319
55 52 45 42 39 33 25 22 25 29 24 17 23 15 11 10 9 3 12 14 340 350 352 1 7 321 300 300 305 334 14 31 346 322 321 317 317 307
49 47 44 41 38 30 21 17 22 28 22 19 18 13 11 11 10 0 1 359 353 353 350 352 343 319 317 320 322 335 341 344 336 258 282 304 321 321
44 41 38 35 32 25 23 21 19 20 18 15 13 7 6 4 358 1 359 352 352 350 341 340 339 330 328 326 327 328 326 322 323 320 331 202 217 235